• In Romania
  • List of Countries
  • For 7 days
  • Water Temperature
  • Satellite Maps
  • Weather Map
  • Weather Widgets
  • user-avatar
    Login

    Hourly Weather Sovetskoe

    Today, 21 August, Tuesday

    Time Temperature Precipitation Wind Pressure Humidity
    00:00 +20°C° 0 mm 2 mps 756 mmHg 54%
    01:00 +19°C° 0 mm 2 mps 756 mmHg 56%
    02:00 +19°C° 0 mm 2 mps 756 mmHg 58%
    03:00 +19°C° 0 mm 2 mps 756 mmHg 58%
    04:00 +19°C° 0 mm 2 mps 756 mmHg 59%
    05:00 +19°C° 0 mm 2 mps 756 mmHg 59%
    06:00 +19°C° 0 mm 2 mps 756 mmHg 60%
    07:00 +21°C° 0 mm 3 mps 756 mmHg 53%
    08:00 +24°C° 0 mm 3 mps 756 mmHg 47%
    09:00 +27°C° 0 mm 3 mps 756 mmHg 39%
    10:00 +28°C° 0 mm 4 mps 756 mmHg 36%
    11:00 +29°C° 0 mm 4 mps 756 mmHg 33%
    12:00 +30°C° 0 mm 5 mps 756 mmHg 30%
    13:00 +30°C° 0 mm 5 mps 755 mmHg 30%
    14:00 +30°C° 0 mm 5 mps 755 mmHg 29%
    15:00 +30°C° 0 mm 5 mps 754 mmHg 28%
    16:00 +30°C° 0 mm 4 mps 754 mmHg 31%
    17:00 +29°C° 0 mm 4 mps 754 mmHg 33%
    18:00 +28°C° 0 mm 3 mps 754 mmHg 36%
    19:00 +26°C° 0 mm 3 mps 754 mmHg 37%
    20:00 +25°C° 0 mm 3 mps 754 mmHg 39%
    21:00 +22°C° 0 mm 3 mps 753 mmHg 40%
    22:00 +22°C° 0 mm 3 mps 753 mmHg 40%
    23:00 +21°C° 0 mm 3 mps 753 mmHg 40%

    Tomorrow, 22 August, Wednesday

    Time Temperature Precipitation Wind Pressure Humidity
    00:00 +20°C° 0 mm 3 mps 753 mmHg 40%
    01:00 +20°C° 0 mm 3 mps 753 mmHg 39%
    02:00 +20°C° 0 mm 3 mps 752 mmHg 38%
    03:00 +19°C° 0 mm 4 mps 752 mmHg 38%
    04:00 +19°C° 0 mm 4 mps 752 mmHg 38%
    05:00 +19°C° 0 mm 4 mps 751 mmHg 39%
    06:00 +19°C° 0 mm 4 mps 751 mmHg 40%
    07:00 +21°C° 0 mm 5 mps 751 mmHg 37%
    08:00 +23°C° 0 mm 6 mps 751 mmHg 34%
    09:00 +26°C° 0 mm 7 mps 751 mmHg 30%
    10:00 +24°C° 0.3 mm 7 mps 751 mmHg 37%
    11:00 +24°C° 0.3 mm 6 mps 751 mmHg 44%
    12:00 +23°C° 0.3 mm 6 mps 751 mmHg 51%
    13:00 +22°C° 0.4 mm 5 mps 751 mmHg 59%
    14:00 +21°C° 0.4 mm 5 mps 751 mmHg 67%
    15:00 +20°C° 0.4 mm 4 mps 751 mmHg 76%
    16:00 +20°C° 0.1 mm 4 mps 752 mmHg 69%
    17:00 +21°C° 0.1 mm 4 mps 752 mmHg 62%
    18:00 +22°C° 0.1 mm 4 mps 752 mmHg 55%
    19:00 +20°C° 0 mm 4 mps 753 mmHg 57%
    20:00 +19°C° 0 mm 4 mps 753 mmHg 60%
    21:00 +17°C° 0 mm 4 mps 754 mmHg 62%
    22:00 +17°C° 0 mm 4 mps 754 mmHg 64%
    23:00 +16°C° 0 mm 3 mps 755 mmHg 67%

    Day after tomorrow, 23 August, Thursday

    Time Temperature Precipitation Wind Pressure Humidity
    00:00 +14°C° 0 mm 3 mps 755 mmHg 69%
    01:00 +14°C° 0 mm 3 mps 755 mmHg 71%
    02:00 +13°C° 0 mm 3 mps 756 mmHg 73%
    03:00 +13°C° 0 mm 3 mps 756 mmHg 75%
    04:00 +13°C° 0 mm 3 mps 756 mmHg 75%
    05:00 +13°C° 0 mm 3 mps 757 mmHg 75%
    06:00 +13°C° 0 mm 3 mps 757 mmHg 75%
    07:00 +15°C° 0 mm 4 mps 757 mmHg 67%
    08:00 +18°C° 0 mm 4 mps 758 mmHg 58%
    09:00 +19°C° 0 mm 5 mps 758 mmHg 49%
    10:00 +20°C° 0 mm 5 mps 758 mmHg 45%
    11:00 +21°C° 0 mm 5 mps 758 mmHg 41%
    12:00 +22°C° 0 mm 5 mps 758 mmHg 37%
    13:00 +22°C° 0 mm 5 mps 758 mmHg 37%
    14:00 +23°C° 0 mm 5 mps 758 mmHg 37%
    15:00 +23°C° 0 mm 5 mps 758 mmHg 36%
    16:00 +22°C° 0 mm 4 mps 758 mmHg 39%
    17:00 +21°C° 0 mm 4 mps 759 mmHg 43%
    18:00 +21°C° 0 mm 3 mps 759 mmHg 46%
    19:00 +19°C° 0 mm 3 mps 759 mmHg 50%
    20:00 +18°C° 0 mm 3 mps 759 mmHg 54%
    21:00 +16°C° 0 mm 3 mps 760 mmHg 58%
    22:00 +16°C° 0 mm 3 mps 760 mmHg 60%
    23:00 +15°C° 0 mm 2 mps 760 mmHg 63%

    24 August, Friday

    Time Temperature Precipitation Wind Pressure Humidity
    00:00 +14°C° 0 mm 2 mps 760 mmHg 65%
    01:00 +14°C° 0 mm 2 mps 760 mmHg 66%
    02:00 +14°C° 0 mm 2 mps 761 mmHg 67%
    03:00 +13°C° 0 mm 1 mps 761 mmHg 69%
    04:00 +13°C° 0 mm 1 mps 761 mmHg 68%
    05:00 +13°C° 0 mm 1 mps 761 mmHg 68%
    06:00 +14°C° 0 mm 1 mps 761 mmHg 68%
    07:00 +15°C° 0 mm 1 mps 761 mmHg 60%
    08:00 +18°C° 0 mm 1 mps 761 mmHg 53%
    09:00 +19°C° 0 mm 2 mps 761 mmHg 46%
    10:00 +20°C° 0 mm 2 mps 761 mmHg 42%
    11:00 +23°C° 0 mm 2 mps 760 mmHg 39%
    12:00 +24°C° 0 mm 2 mps 760 mmHg 35%
    13:00 +24°C° 0 mm 2 mps 760 mmHg 34%
    14:00 +25°C° 0 mm 2 mps 760 mmHg 32%
    15:00 +25°C° 0 mm 3 mps 759 mmHg 31%
    16:00 +25°C° 0 mm 2 mps 759 mmHg 34%
    17:00 +24°C° 0 mm 2 mps 759 mmHg 38%
    18:00 +24°C° 0 mm 2 mps 759 mmHg 41%
    19:00 +21°C° 0 mm 2 mps 759 mmHg 44%
    20:00 +20°C° 0 mm 2 mps 759 mmHg 48%
    21:00 +18°C° 0 mm 2 mps 759 mmHg 52%
    22:00 +18°C° 0 mm 2 mps 759 mmHg 54%
    23:00 +17°C° 0 mm 2 mps 759 mmHg 57%

    25 August, Saturday

    Time Temperature Precipitation Wind Pressure Humidity
    00:00 +17°C° 0 mm 2 mps 759 mmHg 60%
    01:00 +16°C° 0 mm 2 mps 759 mmHg 62%
    02:00 +16°C° 0 mm 2 mps 759 mmHg 64%
    03:00 +15°C° 0 mm 2 mps 759 mmHg 67%
    04:00 +15°C° 0 mm 2 mps 759 mmHg 68%
    05:00 +15°C° 0 mm 2 mps 759 mmHg 68%
    06:00 +15°C° 0 mm 2 mps 759 mmHg 69%
    07:00 +17°C° 0 mm 2 mps 759 mmHg 63%
    08:00 +19°C° 0 mm 2 mps 759 mmHg 56%
    09:00 +21°C° 0 mm 2 mps 760 mmHg 49%
    10:00 +23°C° 0 mm 2 mps 759 mmHg 45%
    11:00 +25°C° 0 mm 2 mps 759 mmHg 41%
    12:00 +26°C° 0 mm 2 mps 759 mmHg 37%
    13:00 +26°C° 0 mm 2 mps 759 mmHg 36%
    14:00 +27°C° 0 mm 2 mps 759 mmHg 35%
    15:00 +28°C° 0 mm 2 mps 758 mmHg 34%
    16:00 +27°C° 0 mm 2 mps 758 mmHg 37%
    17:00 +26°C° 0 mm 2 mps 758 mmHg 41%
    18:00 +26°C° 0 mm 2 mps 758 mmHg 44%
    19:00 +24°C° 0 mm 2 mps 758 mmHg 49%
    20:00 +23°C° 0 mm 2 mps 759 mmHg 54%
    21:00 +21°C° 0 mm 2 mps 759 mmHg 58%
    22:00 +20°C° 0 mm 2 mps 759 mmHg 61%
    23:00 +20°C° 0 mm 2 mps 759 mmHg 65%

    26 August, Sunday

    Time Temperature Precipitation Wind Pressure Humidity
    00:00 +19°C° 0 mm 2 mps 759 mmHg 68%
    01:00 +19°C° 0 mm 2 mps 759 mmHg 70%
    02:00 +18°C° 0 mm 2 mps 759 mmHg 73%
    03:00 +18°C° 0 mm 2 mps 760 mmHg 75%
    04:00 +18°C° 0 mm 2 mps 760 mmHg 75%
    05:00 +17°C° 0 mm 2 mps 760 mmHg 76%
    06:00 +17°C° 0 mm 2 mps 760 mmHg 76%
    07:00 +19°C° 0 mm 2 mps 760 mmHg 68%
    08:00 +21°C° 0 mm 3 mps 760 mmHg 60%
    09:00 +24°C° 0 mm 3 mps 761 mmHg 52%
    10:00 +25°C° 0 mm 3 mps 760 mmHg 48%
    11:00 +26°C° 0 mm 3 mps 760 mmHg 44%
    12:00 +27°C° 0 mm 3 mps 760 mmHg 40%
    13:00 +27°C° 0 mm 3 mps 760 mmHg 38%
    14:00 +28°C° 0 mm 3 mps 759 mmHg 35%
    15:00 +28°C° 0 mm 3 mps 759 mmHg 33%
    16:00 +27°C° 0 mm 3 mps 759 mmHg 35%
    17:00 +27°C° 0 mm 3 mps 759 mmHg 37%
    18:00 +26°C° 0 mm 3 mps 759 mmHg 39%
    19:00 +24°C° 0 mm 3 mps 759 mmHg 41%
    20:00 +22°C° 0 mm 3 mps 759 mmHg 44%
    21:00 +20°C° 0 mm 3 mps 759 mmHg 46%
    22:00 +20°C° 0 mm 3 mps 759 mmHg 48%
    23:00 +19°C° 0 mm 3 mps 759 mmHg 50%
    Show more